Terug naar catalogus

COSMOS 683

ActiefMilitairLEO
NORAD 7441·PAYLOAD·🇷🇺 Russia

Gelanceerd Sep 19, 1974 vanaf Plesetsk Cosmodrome

Loading…

Volgende Passages (komende 24 uur)

TLE

VersSource: Space-Track

Epoch: Sep 14, 2026, 09:37 UTC

1 07441U 74072G   26257.40117626 -.00000027  00000-0 -72509-4 0  9993
2 07441  74.0353  47.8071 0020289 158.7705 201.4194 12.53520292378832

Volg COSMOS 683 in realtime met AllMySat

Download on the App Store